QTR6N OTHH-VOMM

Flight info

Callsign QTR6N
Flight time 4h 0m
Altitude 37000
Route DATRI DCT FS14 DCT SOMAL DCT KATIT DCT PEKEM/N0494F390 M628 RIGIL DCT LUDID DCT LABSA DCT EGVAN DCT KUNGO DCT GEVED N881 GIDAN N629 TOTOX P574 BBM/N0494F250 W48 OPAMO DCT ANIRO
Aircraft B789/H-SDE1E2E3FGHIJ2J3J4J5M1RWXY/LB1D1

Departure

Time 2026-05-06 00:01
Airport Hamad International Airport (OTHH)

Arrival

Time 2026-05-06 04:02
Airport Chennai International Airport (VOMM)
Time Latitude Longitude Altitude Speed Heading
2026-05-05 23:27 25.26357 51.61373 28 ft 0 kts 248°
2026-05-05 23:48 25.26362 51.61386 28 ft 2 kts 249°
2026-05-05 23:48 25.26368 51.61403 27 ft 2 kts 249°
2026-05-05 23:48 25.26374 51.61420 27 ft 2 kts 244°
2026-05-05 23:49 25.26385 51.61434 24 ft 2 kts 213°
2026-05-05 23:49 25.26400 51.61442 25 ft 2 kts 195°
2026-05-05 23:49 25.26416 51.61445 25 ft 2 kts 184°
2026-05-05 23:49 25.26433 51.61444 27 ft 2 kts 168°
2026-05-05 23:50 25.26449 51.61440 26 ft 2 kts 164°
2026-05-05 23:50 25.26465 51.61434 26 ft 2 kts 161°
2026-05-05 23:50 25.26479 51.61428 25 ft 1 kts 159°
2026-05-05 23:50 25.26482 51.61427 25 ft 0 kts 159°
2026-05-05 23:53 25.26481 51.61427 28 ft 0 kts 159°
2026-05-05 23:53 25.26476 51.61429 28 ft 1 kts 159°
2026-05-05 23:54 25.26468 51.61433 28 ft 2 kts 159°
2026-05-05 23:54 25.26454 51.61439 28 ft 3 kts 159°
2026-05-05 23:54 25.26428 51.61450 28 ft 5 kts 159°
2026-05-05 23:54 25.26396 51.61470 28 ft 6 kts 135°
2026-05-05 23:55 25.26388 51.61508 28 ft 5 kts 82°
2026-05-05 23:55 25.26401 51.61551 28 ft 7 kts 67°
2026-05-05 23:55 25.26421 51.61604 28 ft 8 kts 68°
2026-05-05 23:55 25.26444 51.61668 28 ft 10 kts 68°
2026-05-05 23:56 25.26471 51.61742 28 ft 11 kts 68°
2026-05-05 23:56 25.26501 51.61824 28 ft 12 kts 68°
2026-05-05 23:56 25.26527 51.61913 27 ft 11 kts 93°
2026-05-05 23:56 25.26481 51.61971 27 ft 11 kts 153°
2026-05-05 23:57 25.26408 51.62004 28 ft 12 kts 159°
2026-05-05 23:57 25.26334 51.62036 28 ft 12 kts 158°
2026-05-05 23:57 25.26259 51.62069 28 ft 11 kts 158°
2026-05-05 23:57 25.26186 51.62102 28 ft 11 kts 158°
2026-05-05 23:58 25.26113 51.62134 28 ft 11 kts 159°
2026-05-05 23:58 25.26041 51.62165 28 ft 11 kts 159°
2026-05-05 23:58 25.25973 51.62201 28 ft 10 kts 138°
2026-05-05 23:58 25.25968 51.62262 28 ft 8 kts 70°
2026-05-05 23:59 25.25988 51.62318 28 ft 8 kts 68°
2026-05-05 23:59 25.26008 51.62371 28 ft 8 kts 68°
2026-05-05 23:59 25.26029 51.62430 28 ft 9 kts 68°
2026-05-05 23:59 25.26061 51.62466 27 ft 4 kts 358°
2026-05-06 00:00 25.26084 51.62457 27 ft 4 kts 340°
2026-05-06 00:00 25.26134 51.62437 28 ft 18 kts 338°
2026-05-06 00:00 25.26422 51.62309 28 ft 73 kts 338°
2026-05-06 00:00 25.27062 51.62030 28 ft 126 kts 339°
2026-05-06 00:01 25.28029 51.61599 28 ft 170 kts 338°
2026-05-06 00:01 25.29212 51.61068 378 ft 189 kts 334°
2026-05-06 00:01 25.30469 51.60485 899 ft 204 kts 335°
2026-05-06 00:01 25.31817 51.59857 1423 ft 221 kts 340°
2026-05-06 00:02 25.33346 51.59246 1632 ft 245 kts 345°
2026-05-06 00:02 25.35013 51.59226 1804 ft 241 kts 19°
2026-05-06 00:02 25.36584 51.59883 2090 ft 242 kts 22°
2026-05-06 00:02 25.37633 51.60307 2306 ft 243 kts 20°
2026-05-06 00:03 25.39267 51.60854 2615 ft 245 kts 17°
2026-05-06 00:03 25.41326 51.61800 3049 ft 244 kts 47°
2026-05-06 00:03 25.41930 51.62862 3300 ft 245 kts 73°
2026-05-06 00:03 25.41902 51.64724 3682 ft 249 kts 111°
2026-05-06 00:04 25.40795 51.66183 4137 ft 256 kts 148°
2026-05-06 00:04 25.39153 51.67020 4630 ft 262 kts 156°
2026-05-06 00:04 25.37458 51.67773 5112 ft 264 kts 157°
2026-05-06 00:04 25.35723 51.68523 5605 ft 267 kts 158°
2026-05-06 00:05 25.32251 51.70033 6542 ft 272 kts 158°
2026-05-06 00:05 25.30483 51.70809 7002 ft 274 kts 158°
2026-05-06 00:05 25.28704 51.71592 7482 ft 277 kts 158°
2026-05-06 00:06 25.26875 51.72402 7967 ft 292 kts 158°
2026-05-06 00:06 25.24953 51.73256 8473 ft 302 kts 158°
2026-05-06 00:06 25.22989 51.74132 8973 ft 307 kts 158°
2026-05-06 00:06 25.20967 51.74901 9497 ft 309 kts 174°
2026-05-06 00:07 25.18854 51.74586 10019 ft 310 kts 203°
2026-05-06 00:07 25.16897 51.73570 10500 ft 311 kts 209°
2026-05-06 00:07 25.14943 51.72520 10976 ft 313 kts 204°
2026-05-06 00:07 25.12883 51.71720 11503 ft 315 kts 198°
2026-05-06 00:08 25.10757 51.71062 12058 ft 324 kts 198°
2026-05-06 00:08 25.08539 51.70302 12583 ft 343 kts 200°
2026-05-06 00:08 25.06354 51.69479 13145 ft 358 kts 200°
2026-05-06 00:08 25.03941 51.68593 13723 ft 374 kts 199°
2026-05-06 00:09 25.01418 51.67705 14251 ft 389 kts 199°
2026-05-06 00:09 24.98784 51.66773 14773 ft 402 kts 199°
2026-05-06 00:09 24.96085 51.65800 15292 ft 415 kts 199°
2026-05-06 00:09 24.93296 51.64795 15821 ft 426 kts 199°
2026-05-06 00:10 24.90483 51.63791 16336 ft 435 kts 199°
2026-05-06 00:10 24.87574 51.62755 16871 ft 443 kts 199°
2026-05-06 00:10 24.84619 51.61698 17387 ft 446 kts 199°
2026-05-06 00:10 24.81659 51.60639 17931 ft 449 kts 199°
2026-05-06 00:11 24.78686 51.59577 18398 ft 451 kts 199°
2026-05-06 00:11 24.75693 51.58510 18817 ft 455 kts 199°
2026-05-06 00:11 24.72669 51.57432 19167 ft 456 kts 199°
2026-05-06 00:11 24.69557 51.56709 19544 ft 460 kts 187°
2026-05-06 00:12 24.66355 51.56421 19893 ft 463 kts 186°
2026-05-06 00:12 24.63143 51.56127 20253 ft 465 kts 186°
2026-05-06 00:12 24.59913 51.55826 20606 ft 466 kts 186°
2026-05-06 00:12 24.56668 51.55519 20978 ft 468 kts 186°
2026-05-06 00:13 24.53451 51.55217 21342 ft 470 kts 186°
2026-05-06 00:13 24.50166 51.54912 21721 ft 473 kts 186°
2026-05-06 00:13 24.46862 51.54605 22103 ft 476 kts 187°
2026-05-06 00:13 24.43549 51.54295 22479 ft 479 kts 187°
2026-05-06 00:14 24.40218 51.53984 22873 ft 481 kts 187°
2026-05-06 00:14 24.36869 51.53673 23258 ft 483 kts 187°
2026-05-06 00:14 24.33507 51.53360 23605 ft 486 kts 187°
2026-05-06 00:14 24.30171 51.53049 23930 ft 488 kts 187°
2026-05-06 00:15 24.26738 51.52730 24265 ft 489 kts 187°
2026-05-06 00:15 24.23376 51.52418 24599 ft 491 kts 187°
2026-05-06 00:15 24.19944 51.52099 24940 ft 493 kts 187°
2026-05-06 00:15 24.16509 51.51780 25276 ft 495 kts 187°
2026-05-06 00:16 24.13064 51.51460 25621 ft 497 kts 187°
2026-05-06 00:16 24.09621 51.51141 25979 ft 498 kts 187°
2026-05-06 00:16 24.06201 51.50824 26330 ft 499 kts 187°
2026-05-06 00:16 24.02733 51.50503 26688 ft 500 kts 187°
2026-05-06 00:17 23.99263 51.50181 27058 ft 501 kts 187°
2026-05-06 00:17 23.95783 51.49859 27423 ft 501 kts 188°
2026-05-06 00:17 23.92313 51.49538 27789 ft 502 kts 188°
2026-05-06 00:17 23.88835 51.49217 28160 ft 502 kts 188°
2026-05-06 00:18 23.85345 51.48895 28557 ft 502 kts 188°
2026-05-06 00:18 23.81858 51.48572 28944 ft 503 kts 188°
2026-05-06 00:18 23.78371 51.48251 29335 ft 503 kts 188°
2026-05-06 00:18 23.74880 51.47929 29734 ft 503 kts 188°
2026-05-06 00:19 23.71390 51.47607 30078 ft 502 kts 188°
2026-05-06 00:19 23.67945 51.47290 30415 ft 501 kts 188°
2026-05-06 00:19 23.64465 51.46969 30755 ft 500 kts 188°
2026-05-06 00:19 23.61017 51.46652 31099 ft 498 kts 188°
2026-05-06 00:20 23.57541 51.46490 31482 ft 500 kts 180°
2026-05-06 00:20 23.54106 51.46938 31866 ft 503 kts 171°
2026-05-06 00:20 23.50732 51.48019 32273 ft 506 kts 161°
2026-05-06 00:20 23.47557 51.49712 32698 ft 510 kts 152°
2026-05-06 00:21 23.44667 51.51983 33005 ft 516 kts 141°
2026-05-06 00:21 23.42149 51.54793 33306 ft 521 kts 131°
2026-05-06 00:21 23.40022 51.58009 33594 ft 523 kts 128°
2026-05-06 00:21 23.37952 51.61270 33853 ft 524 kts 128°
2026-05-06 00:22 23.35897 51.64560 34072 ft 524 kts 127°
2026-05-06 00:22 23.33855 51.67836 34295 ft 522 kts 128°
2026-05-06 00:22 23.31832 51.71048 34521 ft 521 kts 128°
2026-05-06 00:22 23.29776 51.74298 34746 ft 520 kts 128°
2026-05-06 00:23 23.27731 51.77548 34953 ft 520 kts 127°
2026-05-06 00:23 23.25691 51.80797 35189 ft 519 kts 128°
2026-05-06 00:23 23.23651 51.84034 35422 ft 519 kts 128°
2026-05-06 00:23 23.21626 51.87238 35645 ft 518 kts 128°
2026-05-06 00:24 23.19581 51.90477 35880 ft 518 kts 128°
2026-05-06 00:24 23.17554 51.93691 36115 ft 517 kts 128°
2026-05-06 00:24 23.15510 51.96927 36351 ft 517 kts 128°
2026-05-06 00:24 23.13469 52.00152 36595 ft 516 kts 128°
2026-05-06 00:25 23.11435 52.03366 36769 ft 517 kts 128°
2026-05-06 00:25 23.07349 52.09820 36767 ft 514 kts 128°
2026-05-06 00:26 23.03337 52.16146 36763 ft 510 kts 128°
2026-05-06 00:26 22.99306 52.22496 36766 ft 510 kts 128°
2026-05-06 00:27 22.95268 52.28848 36767 ft 511 kts 128°
2026-05-06 00:27 22.93585 52.31494 36763 ft 511 kts 128°
2026-05-06 00:28 22.89543 52.37842 36767 ft 510 kts 128°
2026-05-06 00:28 22.85508 52.44179 36764 ft 511 kts 126°
2026-05-06 00:28 22.83823 52.47576 36789 ft 515 kts 114°
2026-05-06 00:29 22.82736 52.51294 36806 ft 520 kts 102°
2026-05-06 00:29 22.82177 52.59132 36787 ft 523 kts 93°
2026-05-06 00:30 22.81993 52.67017 36784 ft 523 kts 92°
2026-05-06 00:30 22.81778 52.74861 36785 ft 523 kts 93°
2026-05-06 00:31 22.81572 52.82747 36784 ft 523 kts 93°
2026-05-06 00:31 22.81356 52.90634 36782 ft 522 kts 93°
2026-05-06 00:32 22.81139 52.98484 36783 ft 522 kts 93°
2026-05-06 00:32 22.80918 53.06349 36786 ft 522 kts 93°
2026-05-06 00:33 22.80692 53.14216 36783 ft 521 kts 93°
2026-05-06 00:33 22.80463 53.22072 36782 ft 521 kts 93°
2026-05-06 00:34 22.80232 53.29926 36765 ft 522 kts 93°
2026-05-06 00:34 22.79992 53.37795 36792 ft 522 kts 93°
2026-05-06 00:35 22.79756 53.45608 36763 ft 522 kts 93°
2026-05-06 00:35 22.79508 53.53462 36780 ft 521 kts 93°
2026-05-06 00:36 22.79263 53.61320 36787 ft 521 kts 93°
2026-05-06 00:36 22.79010 53.69162 36784 ft 521 kts 93°
2026-05-06 00:37 22.78755 53.77018 36768 ft 521 kts 93°
2026-05-06 00:37 22.78494 53.84867 36792 ft 520 kts 93°
2026-05-06 00:38 22.78234 53.92662 36794 ft 521 kts 93°
2026-05-06 00:38 22.78257 54.00508 36827 ft 521 kts 80°
2026-05-06 00:39 22.79772 54.08206 36792 ft 522 kts 77°
2026-05-06 00:39 22.81348 54.15893 36755 ft 523 kts 78°
2026-05-06 00:40 22.82900 54.23589 36758 ft 522 kts 77°
2026-05-06 00:40 22.84466 54.31291 36765 ft 522 kts 77°
2026-05-06 00:41 22.86019 54.39016 36786 ft 523 kts 77°
2026-05-06 00:41 22.87330 54.45491 36782 ft 523 kts 78°
2026-05-06 00:42 22.88873 54.53203 36814 ft 523 kts 77°
2026-05-06 00:42 22.90425 54.60915 36805 ft 523 kts 78°
2026-05-06 00:43 22.91952 54.68573 36783 ft 522 kts 77°
2026-05-06 00:43 22.93490 54.76272 36770 ft 521 kts 78°
2026-05-06 00:44 22.95019 54.83974 36779 ft 523 kts 77°
2026-05-06 00:44 22.96552 54.91691 36768 ft 523 kts 78°
2026-05-06 00:45 22.98073 54.99400 36769 ft 523 kts 77°
2026-05-06 00:45 22.99497 55.06602 36775 ft 524 kts 78°
2026-05-06 00:46 23.01018 55.14346 36778 ft 524 kts 78°
2026-05-06 00:46 23.02538 55.22087 36790 ft 524 kts 78°
2026-05-06 00:47 23.03956 55.29841 36816 ft 522 kts 86°
2026-05-06 00:47 23.03987 55.37723 36814 ft 523 kts 91°
2026-05-06 00:48 23.03861 55.45614 36810 ft 523 kts 91°
2026-05-06 00:48 23.03754 55.53510 36857 ft 522 kts 91°
2026-05-06 00:49 23.03633 55.61400 36839 ft 522 kts 91°
2026-05-06 00:49 23.03513 55.69237 36835 ft 522 kts 91°
2026-05-06 00:50 23.03385 55.77156 36832 ft 522 kts 91°
2026-05-06 00:50 23.03255 55.85003 36828 ft 521 kts 91°
2026-05-06 00:51 23.03121 55.92873 36835 ft 520 kts 91°
2026-05-06 00:51 23.02988 56.00702 36839 ft 520 kts 91°
2026-05-06 00:52 23.02849 56.08559 36840 ft 520 kts 91°
2026-05-06 00:52 23.02708 56.16404 36842 ft 520 kts 91°
2026-05-06 00:53 23.02562 56.24283 36848 ft 519 kts 91°
2026-05-06 00:53 23.02412 56.32121 36855 ft 520 kts 91°
2026-05-06 00:54 23.02251 56.39934 36854 ft 519 kts 92°
2026-05-06 00:54 23.02085 56.47771 36865 ft 519 kts 92°
2026-05-06 00:55 23.01916 56.55639 36871 ft 519 kts 92°
2026-05-06 00:55 23.01742 56.63473 36879 ft 519 kts 92°
2026-05-06 00:56 23.01566 56.71319 36885 ft 519 kts 92°
2026-05-06 00:56 23.01386 56.79093 36897 ft 518 kts 92°
2026-05-06 00:57 23.01217 56.86285 36905 ft 518 kts 92°
2026-05-06 00:57 23.01029 56.94110 36912 ft 518 kts 92°
2026-05-06 00:58 23.01012 57.01926 36926 ft 517 kts 89°
2026-05-06 00:58 23.01060 57.09742 36936 ft 518 kts 89°
2026-05-06 00:59 23.01178 57.17549 36931 ft 518 kts 89°
2026-05-06 00:59 23.01253 57.25372 36934 ft 519 kts 90°
2026-05-06 01:00 23.01343 57.33205 36935 ft 518 kts 89°
2026-05-06 01:00 23.01422 57.41033 36944 ft 519 kts 90°
2026-05-06 01:01 23.01500 57.48922 36929 ft 519 kts 90°
2026-05-06 01:01 23.01573 57.56758 36929 ft 519 kts 90°
2026-05-06 01:02 23.01641 57.64588 36946 ft 519 kts 90°
2026-05-06 01:02 23.01708 57.72423 36919 ft 519 kts 90°
2026-05-06 01:03 23.01768 57.80237 36902 ft 519 kts 90°
2026-05-06 01:03 23.01822 57.88076 36890 ft 518 kts 90°
2026-05-06 01:04 23.01808 57.95845 36878 ft 518 kts 90°
2026-05-06 01:04 23.01819 58.03712 36876 ft 518 kts 90°
2026-05-06 01:05 23.01812 58.11528 36883 ft 518 kts 90°
2026-05-06 01:05 23.01808 58.19358 36878 ft 518 kts 90°
2026-05-06 01:06 23.01797 58.27186 36883 ft 518 kts 90°
2026-05-06 01:06 23.01779 58.34961 36875 ft 518 kts 92°
2026-05-06 01:06 23.01363 58.38837 36900 ft 516 kts 105°
2026-05-06 01:07 23.00388 58.42572 36868 ft 516 kts 108°
2026-05-06 01:07 22.98284 58.50012 36879 ft 515 kts 108°
2026-05-06 01:08 22.96206 58.57453 36875 ft 515 kts 108°
2026-05-06 01:08 22.94113 58.64878 36866 ft 514 kts 108°
2026-05-06 01:09 22.92027 58.72286 36856 ft 514 kts 108°
2026-05-06 01:09 22.89932 58.79702 36865 ft 514 kts 108°
2026-05-06 01:10 22.87833 58.87125 36859 ft 513 kts 108°
2026-05-06 01:10 22.85736 58.94523 36859 ft 514 kts 108°
2026-05-06 01:11 22.83634 59.01925 36856 ft 514 kts 108°
2026-05-06 01:11 22.81533 59.09309 36851 ft 514 kts 108°
2026-05-06 01:12 22.79420 59.16721 36848 ft 514 kts 108°
2026-05-06 01:12 22.77305 59.24128 36838 ft 515 kts 108°
2026-05-06 01:13 22.75184 59.31536 36830 ft 514 kts 108°
2026-05-06 01:13 22.73065 59.38928 36822 ft 513 kts 108°
2026-05-06 01:14 22.69882 59.50002 36817 ft 513 kts 108°
2026-05-06 01:14 22.67757 59.57380 36817 ft 513 kts 108°
2026-05-06 01:15 22.65629 59.64752 36812 ft 512 kts 108°
2026-05-06 01:15 22.63510 59.72078 36818 ft 512 kts 108°
2026-05-06 01:16 22.61366 59.79478 36817 ft 512 kts 108°
2026-05-06 01:16 22.59250 59.86783 36821 ft 512 kts 108°
2026-05-06 01:17 22.57116 59.94126 36814 ft 511 kts 109°
2026-05-06 01:17 22.54983 60.01456 36818 ft 511 kts 109°
2026-05-06 01:18 22.53193 60.07596 36822 ft 510 kts 109°
2026-05-06 01:18 22.51053 60.14925 36828 ft 510 kts 109°
2026-05-06 01:19 22.48912 60.22242 36828 ft 510 kts 109°
2026-05-06 01:19 22.46768 60.29560 36829 ft 510 kts 109°
2026-05-06 01:20 22.44634 60.36822 36842 ft 510 kts 109°
2026-05-06 01:20 22.42486 60.44129 36841 ft 510 kts 109°
2026-05-06 01:21 22.40333 60.51431 36837 ft 510 kts 109°
2026-05-06 01:21 22.38175 60.58742 36845 ft 510 kts 109°
2026-05-06 01:22 22.36012 60.66052 36839 ft 510 kts 109°
2026-05-06 01:22 22.33845 60.73368 36843 ft 510 kts 109°
2026-05-06 01:23 22.31690 60.80625 36856 ft 509 kts 109°
2026-05-06 01:23 22.29520 60.87922 36847 ft 510 kts 109°
2026-05-06 01:24 22.27346 60.95219 36843 ft 510 kts 109°
2026-05-06 01:24 22.25172 61.02500 36849 ft 510 kts 109°
2026-05-06 01:25 22.23151 61.09261 36844 ft 510 kts 109°
2026-05-06 01:25 22.20971 61.16537 36851 ft 510 kts 109°
2026-05-06 01:26 22.18785 61.23822 36849 ft 510 kts 109°
2026-05-06 01:26 22.16597 61.31102 36845 ft 510 kts 109°
2026-05-06 01:27 22.14409 61.38368 36849 ft 510 kts 109°
2026-05-06 01:27 22.12222 61.45617 36847 ft 509 kts 109°
2026-05-06 01:28 22.10023 61.52893 36851 ft 509 kts 109°
2026-05-06 01:28 22.07826 61.60151 36842 ft 509 kts 109°
2026-05-06 01:29 22.05652 61.67319 36850 ft 509 kts 109°
2026-05-06 01:29 22.03442 61.74590 36864 ft 509 kts 109°
2026-05-06 01:30 22.01236 61.81841 36851 ft 508 kts 109°
2026-05-06 01:30 21.99042 61.89036 36847 ft 508 kts 109°
2026-05-06 01:31 21.96836 61.96260 36852 ft 508 kts 109°
2026-05-06 01:31 21.94623 62.03491 36844 ft 508 kts 109°
2026-05-06 01:32 21.92407 62.10728 36784 ft 509 kts 109°
2026-05-06 01:32 21.90186 62.17946 36872 ft 508 kts 109°
2026-05-06 01:33 21.87964 62.25186 36865 ft 510 kts 109°
2026-05-06 01:33 21.85730 62.32429 36871 ft 509 kts 109°
2026-05-06 01:34 21.83218 62.39521 36892 ft 506 kts 118°
2026-05-06 01:34 21.79977 62.46270 36868 ft 507 kts 118°
2026-05-06 01:35 21.76761 62.53022 36861 ft 507 kts 118°
2026-05-06 01:35 21.73547 62.59735 36864 ft 507 kts 118°
2026-05-06 01:36 21.70319 62.66478 36871 ft 507 kts 118°
2026-05-06 01:36 21.67085 62.73224 36868 ft 507 kts 118°
2026-05-06 01:37 21.63844 62.79973 36867 ft 506 kts 118°
2026-05-06 01:37 21.60609 62.86702 36869 ft 507 kts 118°
2026-05-06 01:38 21.57371 62.93430 36868 ft 506 kts 118°
2026-05-06 01:38 21.54138 63.00138 36871 ft 506 kts 118°
2026-05-06 01:39 21.50888 63.06871 36871 ft 506 kts 118°
2026-05-06 01:39 21.47643 63.13587 36872 ft 506 kts 118°
2026-05-06 01:40 21.44401 63.20290 36869 ft 506 kts 118°
2026-05-06 01:40 21.41168 63.26963 36870 ft 506 kts 118°
2026-05-06 01:41 21.37924 63.33650 36873 ft 505 kts 118°
2026-05-06 01:41 21.34673 63.40345 36870 ft 505 kts 118°
2026-05-06 01:42 21.31420 63.47034 36876 ft 505 kts 118°
2026-05-06 01:42 21.28706 63.52609 36869 ft 506 kts 118°
2026-05-06 01:43 21.25618 63.58946 36877 ft 506 kts 118°
2026-05-06 01:43 21.22354 63.65637 36840 ft 506 kts 118°
2026-05-06 01:44 21.19096 63.72302 36843 ft 505 kts 118°
2026-05-06 01:44 21.15829 63.78982 36859 ft 505 kts 118°
2026-05-06 01:45 21.12570 63.85639 36851 ft 506 kts 118°
2026-05-06 01:45 21.09292 63.92320 36885 ft 506 kts 118°
2026-05-06 01:46 21.06017 63.98997 36845 ft 506 kts 118°
2026-05-06 01:46 21.02741 64.05649 36841 ft 507 kts 118°
2026-05-06 01:47 20.99467 64.12312 36860 ft 505 kts 118°
2026-05-06 01:47 20.96178 64.18978 36858 ft 505 kts 118°
2026-05-06 01:48 20.92900 64.25625 36880 ft 506 kts 118°
2026-05-06 01:48 20.89608 64.32285 36888 ft 506 kts 118°
2026-05-06 01:49 20.86317 64.38943 36880 ft 506 kts 118°
2026-05-06 01:49 20.83023 64.45588 36912 ft 505 kts 118°
2026-05-06 01:50 20.79732 64.52234 36851 ft 507 kts 118°
2026-05-06 01:50 20.76436 64.58870 36855 ft 505 kts 118°
2026-05-06 01:51 20.73168 64.65442 36918 ft 504 kts 118°
2026-05-06 01:51 20.69870 64.72072 36915 ft 506 kts 118°
2026-05-06 01:52 20.66583 64.78670 36896 ft 506 kts 118°
2026-05-06 01:52 20.63273 64.85304 36895 ft 506 kts 118°
2026-05-06 01:53 20.59965 64.91933 36841 ft 506 kts 118°
2026-05-06 01:53 20.56653 64.98551 36852 ft 505 kts 118°
2026-05-06 01:54 20.53375 65.05184 36870 ft 506 kts 117°
2026-05-06 01:54 20.50135 65.11837 36860 ft 505 kts 118°
2026-05-06 01:55 20.46864 65.18471 36874 ft 505 kts 118°
2026-05-06 01:55 20.43604 65.25123 36875 ft 505 kts 118°
2026-05-06 01:56 20.40338 65.31747 36886 ft 505 kts 118°
2026-05-06 01:56 20.37072 65.38383 36878 ft 505 kts 118°
2026-05-06 01:57 20.34359 65.43876 36919 ft 503 kts 118°
2026-05-06 01:57 20.31095 65.50497 36879 ft 505 kts 118°
2026-05-06 01:58 20.27822 65.57109 36874 ft 504 kts 118°
2026-05-06 01:58 20.24556 65.63708 36884 ft 504 kts 118°
2026-05-06 01:59 20.21288 65.70302 36882 ft 504 kts 118°
2026-05-06 01:59 20.18012 65.76899 36931 ft 503 kts 118°
2026-05-06 02:00 20.14741 65.83500 36893 ft 504 kts 118°
2026-05-06 02:00 20.11463 65.90082 36897 ft 503 kts 118°
2026-05-06 02:01 20.08181 65.96677 36872 ft 504 kts 118°
2026-05-06 02:01 20.04895 66.03269 36880 ft 505 kts 118°
2026-05-06 02:02 20.01621 66.09829 36882 ft 505 kts 118°
2026-05-06 02:02 19.98329 66.16420 36880 ft 504 kts 118°
2026-05-06 02:03 19.95025 66.23023 36886 ft 505 kts 118°
2026-05-06 02:03 19.91727 66.29611 36885 ft 505 kts 118°
2026-05-06 02:04 19.88425 66.36196 36892 ft 505 kts 118°
2026-05-06 02:04 19.85118 66.42787 36884 ft 505 kts 118°
2026-05-06 02:05 19.81818 66.49353 36886 ft 504 kts 118°
2026-05-06 02:05 19.78516 66.55917 36885 ft 504 kts 118°
2026-05-06 02:06 19.75207 66.62487 36882 ft 504 kts 118°
2026-05-06 02:06 19.71897 66.69051 36885 ft 505 kts 118°
2026-05-06 02:07 19.68595 66.75593 36884 ft 504 kts 118°
2026-05-06 02:07 19.65274 66.82166 36882 ft 504 kts 118°
2026-05-06 02:08 19.61964 66.88708 36887 ft 503 kts 118°
2026-05-06 02:08 19.58646 66.95257 36887 ft 504 kts 118°
2026-05-06 02:09 19.55328 67.01803 36890 ft 504 kts 118°
2026-05-06 02:09 19.52008 67.08341 36895 ft 503 kts 118°
2026-05-06 02:10 19.48690 67.14871 36896 ft 502 kts 118°
2026-05-06 02:10 19.45373 67.21383 36928 ft 503 kts 118°
2026-05-06 02:11 19.42051 67.27918 36887 ft 503 kts 118°
2026-05-06 02:11 19.39907 67.32110 36925 ft 503 kts 118°
2026-05-06 02:12 19.36572 67.38658 36869 ft 505 kts 118°
2026-05-06 02:12 19.33235 67.45185 36868 ft 503 kts 118°
2026-05-06 02:13 19.29905 67.51699 36878 ft 503 kts 118°
2026-05-06 02:13 19.26571 67.58210 36882 ft 503 kts 118°
2026-05-06 02:14 19.23236 67.64719 36877 ft 503 kts 118°
2026-05-06 02:14 19.19895 67.71228 36879 ft 504 kts 118°
2026-05-06 02:15 19.16546 67.77750 36881 ft 505 kts 118°
2026-05-06 02:15 19.13193 67.84270 36881 ft 505 kts 118°
2026-05-06 02:16 19.09837 67.90789 36880 ft 504 kts 118°
2026-05-06 02:16 19.06485 67.97294 36881 ft 504 kts 118°
2026-05-06 02:17 19.03153 68.03805 36884 ft 504 kts 118°
2026-05-06 02:17 18.99892 68.10356 36883 ft 503 kts 118°
2026-05-06 02:18 18.97003 68.16047 36878 ft 503 kts 118°
2026-05-06 02:18 18.93716 68.22585 36885 ft 504 kts 118°
2026-05-06 02:19 18.90416 68.29110 36887 ft 503 kts 118°
2026-05-06 02:19 18.87121 68.35633 36887 ft 503 kts 118°
2026-05-06 02:20 18.82172 68.45408 36886 ft 503 kts 118°
2026-05-06 02:21 18.78871 68.51922 36887 ft 502 kts 118°
2026-05-06 02:21 18.75573 68.58420 36888 ft 503 kts 118°
2026-05-06 02:22 18.72271 68.64921 36887 ft 503 kts 118°
2026-05-06 02:22 18.68966 68.71420 36886 ft 503 kts 118°
2026-05-06 02:23 18.65656 68.77923 36887 ft 503 kts 118°
2026-05-06 02:23 18.62368 68.84374 36885 ft 503 kts 118°
2026-05-06 02:24 18.59054 68.90871 36885 ft 503 kts 118°
2026-05-06 02:24 18.55738 68.97364 36881 ft 503 kts 118°
2026-05-06 02:25 18.52419 69.03856 36879 ft 503 kts 118°
2026-05-06 02:25 18.49099 69.10344 36879 ft 503 kts 118°
2026-05-06 02:26 18.45776 69.16830 36880 ft 503 kts 118°
2026-05-06 02:26 18.42451 69.23313 36881 ft 503 kts 118°
2026-05-06 02:27 18.39127 69.29792 36884 ft 503 kts 117°
2026-05-06 02:27 18.36045 69.36465 36888 ft 504 kts 116°
2026-05-06 02:28 18.32974 69.43047 36887 ft 504 kts 115°
2026-05-06 02:28 18.29908 69.49727 36891 ft 504 kts 116°
2026-05-06 02:29 18.26827 69.56353 36893 ft 504 kts 116°
2026-05-06 02:29 18.23762 69.62987 36889 ft 504 kts 116°
2026-05-06 02:30 18.20684 69.69611 36889 ft 504 kts 116°
2026-05-06 02:30 18.17616 69.76224 36887 ft 503 kts 116°
2026-05-06 02:31 18.14543 69.82831 36889 ft 503 kts 116°
2026-05-06 02:31 18.11471 69.89435 36888 ft 502 kts 116°
2026-05-06 02:32 18.08416 69.95992 36890 ft 503 kts 116°
2026-05-06 02:32 18.05318 70.02635 36889 ft 503 kts 116°
2026-05-06 02:33 18.02238 70.09232 36890 ft 503 kts 116°
2026-05-06 02:33 18.01218 70.11414 36891 ft 503 kts 116°
2026-05-06 02:34 17.96074 70.22414 36888 ft 502 kts 116°
2026-05-06 02:34 17.93512 70.27883 36888 ft 503 kts 116°
2026-05-06 02:35 17.90428 70.34463 36894 ft 503 kts 116°
2026-05-06 02:35 17.87334 70.41056 36892 ft 503 kts 116°
2026-05-06 02:36 17.84240 70.47642 36893 ft 503 kts 116°
2026-05-06 02:36 17.81139 70.54235 36892 ft 503 kts 116°
2026-05-06 02:37 17.78031 70.60837 36892 ft 504 kts 116°
2026-05-06 02:37 17.74923 70.67425 36893 ft 503 kts 116°
2026-05-06 02:38 17.71819 70.74002 36891 ft 503 kts 116°
2026-05-06 02:38 17.68707 70.80585 36892 ft 503 kts 116°
2026-05-06 02:39 17.65587 70.87182 36900 ft 509 kts 117°
2026-05-06 02:39 17.62405 70.93901 36892 ft 518 kts 117°
2026-05-06 02:40 17.59205 71.00651 36895 ft 517 kts 117°
2026-05-06 02:40 17.56001 71.07401 36894 ft 517 kts 117°
2026-05-06 02:41 17.52801 71.14137 36893 ft 516 kts 117°
2026-05-06 02:41 17.49602 71.20863 36892 ft 516 kts 117°
2026-05-06 02:42 17.46422 71.27544 36895 ft 516 kts 117°
2026-05-06 02:42 17.43220 71.34261 36893 ft 516 kts 117°
2026-05-06 02:43 17.40007 71.40996 36894 ft 517 kts 117°
2026-05-06 02:43 17.36790 71.47731 36891 ft 516 kts 117°
2026-05-06 02:44 17.33580 71.54444 36891 ft 515 kts 117°
2026-05-06 02:44 17.30362 71.61165 36891 ft 516 kts 117°
2026-05-06 02:45 17.27148 71.67872 36891 ft 518 kts 117°
2026-05-06 02:45 17.23919 71.74602 36889 ft 517 kts 117°
2026-05-06 02:46 17.20687 71.81333 36887 ft 518 kts 117°
2026-05-06 02:46 17.17446 71.88076 36888 ft 518 kts 117°
2026-05-06 02:47 17.14227 71.94765 36885 ft 518 kts 117°
2026-05-06 02:47 17.10987 72.01490 36885 ft 517 kts 117°
2026-05-06 02:48 17.07761 72.08205 36886 ft 517 kts 116°
2026-05-06 02:48 17.04622 72.14973 36885 ft 517 kts 116°
2026-05-06 02:49 17.01437 72.21705 36884 ft 517 kts 117°
2026-05-06 02:49 16.98273 72.28453 36884 ft 517 kts 116°
2026-05-06 02:50 16.95090 72.35198 36887 ft 518 kts 117°
2026-05-06 02:50 16.91914 72.41940 36886 ft 517 kts 117°
2026-05-06 02:51 16.88734 72.48676 36891 ft 517 kts 117°
2026-05-06 02:51 16.85545 72.55427 36888 ft 517 kts 117°
2026-05-06 02:52 16.82357 72.62167 36879 ft 517 kts 117°
2026-05-06 02:52 16.79177 72.68883 36881 ft 517 kts 117°
2026-05-06 02:53 16.76003 72.75580 36910 ft 516 kts 117°
2026-05-06 02:53 16.72817 72.82298 36904 ft 516 kts 117°
2026-05-06 02:54 16.69627 72.89014 36912 ft 517 kts 117°
2026-05-06 02:54 16.66432 72.95738 36881 ft 517 kts 117°
2026-05-06 02:55 16.63235 73.02455 36859 ft 516 kts 117°
2026-05-06 02:55 16.60037 73.09165 36906 ft 517 kts 117°
2026-05-06 02:56 16.56779 73.15870 36891 ft 518 kts 118°
2026-05-06 02:56 16.53452 73.22518 36891 ft 517 kts 117°
2026-05-06 02:57 16.50179 73.29187 36883 ft 516 kts 118°
2026-05-06 02:57 16.46873 73.35825 36898 ft 516 kts 117°
2026-05-06 02:58 16.43611 73.42428 36897 ft 515 kts 118°
2026-05-06 02:58 16.40300 73.49084 36901 ft 515 kts 117°
2026-05-06 02:59 16.36993 73.55750 36893 ft 515 kts 117°
2026-05-06 02:59 16.33769 73.62415 36852 ft 516 kts 116°
2026-05-06 03:00 16.30572 73.69093 36872 ft 515 kts 117°
2026-05-06 03:00 16.27348 73.75751 36926 ft 515 kts 117°
2026-05-06 03:01 16.24139 73.82431 36907 ft 517 kts 117°
2026-05-06 03:01 16.20904 73.89112 36926 ft 517 kts 117°
2026-05-06 03:02 16.17710 73.95752 36929 ft 516 kts 117°
2026-05-06 03:02 16.14493 74.02436 36929 ft 515 kts 117°
2026-05-06 03:03 16.11281 74.09099 36927 ft 514 kts 117°
2026-05-06 03:03 16.08076 74.15745 36933 ft 514 kts 117°
2026-05-06 03:04 16.04869 74.22386 36926 ft 513 kts 117°
2026-05-06 03:04 16.01679 74.28987 36939 ft 513 kts 117°
2026-05-06 03:05 15.98473 74.35614 36979 ft 513 kts 117°
2026-05-06 03:05 15.95260 74.42250 37011 ft 513 kts 117°
2026-05-06 03:06 15.92052 74.48869 37037 ft 512 kts 117°
2026-05-06 03:06 15.88863 74.55440 37059 ft 512 kts 117°
2026-05-06 03:07 15.85647 74.62052 37058 ft 512 kts 119°
2026-05-06 03:07 15.82270 74.68551 37053 ft 513 kts 118°
2026-05-06 03:08 15.78904 74.75101 37033 ft 512 kts 119°
2026-05-06 03:08 15.75505 74.81613 37006 ft 512 kts 118°
2026-05-06 03:09 15.72133 74.88143 36976 ft 513 kts 119°
2026-05-06 03:09 15.68755 74.94621 36951 ft 511 kts 118°
2026-05-06 03:10 15.65392 75.01105 36959 ft 510 kts 118°
2026-05-06 03:10 15.62017 75.07581 36966 ft 510 kts 118°
2026-05-06 03:11 15.58633 75.14082 36968 ft 511 kts 118°
2026-05-06 03:11 15.55254 75.20562 36966 ft 510 kts 118°
2026-05-06 03:12 15.51875 75.27039 36959 ft 510 kts 118°
2026-05-06 03:12 15.48515 75.33471 36953 ft 511 kts 118°
2026-05-06 03:13 15.45122 75.39961 36950 ft 512 kts 118°
2026-05-06 03:13 15.41726 75.46453 36947 ft 511 kts 119°
2026-05-06 03:14 15.38336 75.52927 36948 ft 510 kts 119°
2026-05-06 03:14 15.34951 75.59386 36948 ft 510 kts 119°
2026-05-06 03:15 15.32131 75.64761 36945 ft 511 kts 119°
2026-05-06 03:15 15.28244 75.72311 36948 ft 510 kts 117°
2026-05-06 03:16 15.25457 75.77775 36951 ft 512 kts 118°
2026-05-06 03:16 15.22161 75.84305 36952 ft 513 kts 117°
2026-05-06 03:17 15.18864 75.90861 36956 ft 513 kts 118°
2026-05-06 03:17 15.15574 75.97356 36953 ft 513 kts 118°
2026-05-06 03:18 15.12273 76.03905 36955 ft 512 kts 118°
2026-05-06 03:18 15.08966 76.10432 36950 ft 512 kts 118°
2026-05-06 03:19 15.05660 76.16972 36956 ft 512 kts 118°
2026-05-06 03:19 15.02350 76.23500 36955 ft 512 kts 118°
2026-05-06 03:20 14.97388 76.33284 36951 ft 512 kts 118°
2026-05-06 03:20 14.94081 76.39795 36952 ft 511 kts 118°
2026-05-06 03:21 14.90768 76.46314 36959 ft 511 kts 118°
2026-05-06 03:21 14.87460 76.52818 36960 ft 511 kts 118°
2026-05-06 03:22 14.84153 76.59316 36963 ft 511 kts 118°
2026-05-06 03:22 14.80909 76.65849 36959 ft 510 kts 118°
2026-05-06 03:23 14.77655 76.72360 36962 ft 509 kts 118°
2026-05-06 03:23 14.74405 76.78871 36956 ft 509 kts 118°
2026-05-06 03:24 14.71177 76.85329 36956 ft 509 kts 118°
2026-05-06 03:24 14.67927 76.91822 36953 ft 509 kts 118°
2026-05-06 03:25 14.64680 76.98310 36949 ft 508 kts 118°
2026-05-06 03:25 14.61425 77.04803 36957 ft 508 kts 118°
2026-05-06 03:26 14.58435 77.11394 36971 ft 508 kts 111°
2026-05-06 03:26 14.55961 77.18245 36956 ft 509 kts 111°
2026-05-06 03:27 14.53487 77.25035 36942 ft 508 kts 111°
2026-05-06 03:27 14.53066 77.26190 36968 ft 508 kts 111°
2026-05-06 03:28 14.50490 77.33280 36957 ft 509 kts 111°
2026-05-06 03:28 14.48000 77.40108 36955 ft 509 kts 111°
2026-05-06 03:29 14.45507 77.46952 36923 ft 508 kts 111°
2026-05-06 03:29 14.43004 77.53801 36948 ft 508 kts 111°
2026-05-06 03:30 14.40515 77.60620 36950 ft 509 kts 111°
2026-05-06 03:30 14.38011 77.67456 36955 ft 509 kts 111°
2026-05-06 03:31 14.36772 77.70846 36804 ft 512 kts 111°
2026-05-06 03:31 14.35496 77.74331 36420 ft 514 kts 111°
2026-05-06 03:31 14.34237 77.77765 36049 ft 510 kts 111°
2026-05-06 03:31 14.33000 77.81138 35693 ft 508 kts 111°
2026-05-06 03:32 14.31746 77.84558 35340 ft 509 kts 111°
2026-05-06 03:32 14.30492 77.87974 35052 ft 510 kts 111°
2026-05-06 03:32 14.29233 77.91394 34832 ft 511 kts 111°
2026-05-06 03:32 14.27977 77.94825 34581 ft 514 kts 111°
2026-05-06 03:33 14.26713 77.98267 34313 ft 515 kts 111°
2026-05-06 03:33 14.25437 78.01732 34029 ft 516 kts 111°
2026-05-06 03:33 14.24158 78.05208 33695 ft 516 kts 111°
2026-05-06 03:33 14.22885 78.08666 33337 ft 516 kts 111°
2026-05-06 03:34 14.21607 78.12139 33001 ft 517 kts 111°
2026-05-06 03:34 14.20326 78.15613 32651 ft 518 kts 111°
2026-05-06 03:34 14.19055 78.19064 32299 ft 519 kts 111°
2026-05-06 03:34 14.17773 78.22539 31950 ft 518 kts 111°
2026-05-06 03:35 14.16494 78.26006 31605 ft 517 kts 111°
2026-05-06 03:35 14.15215 78.29468 31257 ft 514 kts 111°
2026-05-06 03:35 14.13945 78.32908 30916 ft 512 kts 111°
2026-05-06 03:35 14.12680 78.36328 30570 ft 510 kts 111°
2026-05-06 03:36 14.11423 78.39730 30242 ft 507 kts 111°
2026-05-06 03:36 14.10180 78.43089 29890 ft 505 kts 111°
2026-05-06 03:36 14.08934 78.46456 29492 ft 502 kts 111°
2026-05-06 03:36 14.07688 78.49823 29103 ft 498 kts 111°
2026-05-06 03:37 14.06455 78.53150 28715 ft 495 kts 111°
2026-05-06 03:37 14.05229 78.56458 28333 ft 493 kts 111°
2026-05-06 03:37 14.03998 78.59762 27959 ft 490 kts 113°
2026-05-06 03:37 14.02437 78.62852 27647 ft 485 kts 122°
2026-05-06 03:38 14.00679 78.65848 27266 ft 484 kts 122°
2026-05-06 03:38 13.98945 78.68817 26905 ft 482 kts 122°
2026-05-06 03:38 13.97226 78.71764 26537 ft 479 kts 122°
2026-05-06 03:38 13.95527 78.74672 26181 ft 478 kts 122°
2026-05-06 03:39 13.93817 78.77596 25838 ft 475 kts 122°
2026-05-06 03:39 13.92103 78.80526 25497 ft 473 kts 122°
2026-05-06 03:39 13.90409 78.83424 25166 ft 470 kts 122°
2026-05-06 03:39 13.88724 78.86304 24829 ft 468 kts 122°
2026-05-06 03:40 13.87065 78.89137 24498 ft 466 kts 122°
2026-05-06 03:40 13.85398 78.91984 24173 ft 464 kts 122°
2026-05-06 03:40 13.83735 78.94823 23850 ft 462 kts 122°
2026-05-06 03:40 13.82070 78.97665 23523 ft 461 kts 122°
2026-05-06 03:41 13.80419 79.00481 23139 ft 459 kts 122°
2026-05-06 03:41 13.78771 79.03291 22759 ft 455 kts 122°
2026-05-06 03:41 13.77142 79.06069 22375 ft 452 kts 122°
2026-05-06 03:41 13.75525 79.08825 21998 ft 448 kts 122°
2026-05-06 03:42 13.73918 79.11562 21626 ft 445 kts 122°
2026-05-06 03:42 13.72323 79.14281 21246 ft 442 kts 122°
2026-05-06 03:42 13.70760 79.16942 20894 ft 439 kts 122°
2026-05-06 03:42 13.69164 79.19658 20538 ft 437 kts 122°
2026-05-06 03:43 13.67617 79.22291 20189 ft 434 kts 122°
2026-05-06 03:43 13.66015 79.25015 19825 ft 431 kts 122°
2026-05-06 03:43 13.64460 79.27660 19477 ft 436 kts 122°
2026-05-06 03:43 13.62847 79.30399 19154 ft 458 kts 122°
2026-05-06 03:44 13.61214 79.33175 18828 ft 459 kts 122°
2026-05-06 03:44 13.59562 79.35985 18511 ft 459 kts 122°
2026-05-06 03:44 13.57912 79.38787 18176 ft 456 kts 122°
2026-05-06 03:44 13.56269 79.41576 17793 ft 454 kts 122°
2026-05-06 03:45 13.54640 79.44338 17428 ft 450 kts 122°
2026-05-06 03:45 13.53022 79.47083 17055 ft 447 kts 122°
2026-05-06 03:45 13.51420 79.49802 16684 ft 443 kts 122°
2026-05-06 03:45 13.49827 79.52500 16317 ft 439 kts 121°
2026-05-06 03:46 13.48258 79.55161 15964 ft 436 kts 121°
2026-05-06 03:46 13.46688 79.57821 15600 ft 432 kts 121°
2026-05-06 03:46 13.45134 79.60454 15230 ft 429 kts 120°
2026-05-06 03:46 13.43590 79.63069 14886 ft 426 kts 120°
2026-05-06 03:47 13.41932 79.65536 14553 ft 425 kts 130°
2026-05-06 03:47 13.39883 79.67722 14218 ft 423 kts 132°
2026-05-06 03:47 13.37878 79.69938 13877 ft 422 kts 131°
2026-05-06 03:47 13.35906 79.72133 13520 ft 413 kts 131°
2026-05-06 03:48 13.33975 79.74256 13132 ft 397 kts 130°
2026-05-06 03:48 13.32476 79.76562 12749 ft 378 kts 111°
2026-05-06 03:48 13.31808 79.79069 12411 ft 362 kts 99°
2026-05-06 03:48 13.31364 79.81568 12029 ft 350 kts 99°
2026-05-06 03:49 13.30833 79.83982 11651 ft 341 kts 103°
2026-05-06 03:49 13.30192 79.86296 11313 ft 332 kts 104°
2026-05-06 03:49 13.29587 79.88546 11060 ft 322 kts 103°
2026-05-06 03:49 13.29048 79.90733 10806 ft 310 kts 102°
2026-05-06 03:50 13.28527 79.92850 10555 ft 300 kts 102°
2026-05-06 03:50 13.28008 79.94889 10306 ft 292 kts 103°
2026-05-06 03:50 13.27495 79.96897 10061 ft 289 kts 103°
2026-05-06 03:50 13.26992 79.98885 9824 ft 288 kts 103°
2026-05-06 03:51 13.26658 80.00209 9657 ft 287 kts 103°
2026-05-06 03:51 13.26156 80.02192 9396 ft 286 kts 103°
2026-05-06 03:51 13.25655 80.04166 9152 ft 286 kts 103°
2026-05-06 03:51 13.25153 80.06144 8894 ft 285 kts 103°
2026-05-06 03:52 13.24674 80.08031 8657 ft 284 kts 103°
2026-05-06 03:52 13.24176 80.09992 8412 ft 283 kts 103°
2026-05-06 03:52 13.23689 80.11913 8171 ft 282 kts 103°
2026-05-06 03:52 13.23183 80.13903 7926 ft 281 kts 103°
2026-05-06 03:53 13.22694 80.15829 7683 ft 275 kts 103°
2026-05-06 03:53 13.22218 80.17699 7437 ft 267 kts 103°
2026-05-06 03:53 13.21759 80.19502 7187 ft 259 kts 103°
2026-05-06 03:53 13.21306 80.21287 6946 ft 255 kts 104°
2026-05-06 03:54 13.20856 80.23054 6700 ft 253 kts 104°
2026-05-06 03:54 13.20414 80.24794 6457 ft 253 kts 104°
2026-05-06 03:54 13.19971 80.26532 6219 ft 251 kts 104°
2026-05-06 03:54 13.19530 80.28267 5900 ft 252 kts 104°
2026-05-06 03:55 13.19084 80.30019 5523 ft 250 kts 105°
2026-05-06 03:55 13.18638 80.31767 5159 ft 249 kts 105°
2026-05-06 03:55 13.18201 80.33482 4804 ft 247 kts 105°
2026-05-06 03:55 13.17721 80.35161 4421 ft 243 kts 116°
2026-05-06 03:56 13.16659 80.36465 4052 ft 240 kts 143°
2026-05-06 03:56 13.15149 80.37140 3681 ft 238 kts 171°
2026-05-06 03:56 13.13535 80.37311 3521 ft 227 kts 174°
2026-05-06 03:56 13.11980 80.37446 3395 ft 222 kts 175°
2026-05-06 03:57 13.10457 80.37578 3269 ft 218 kts 175°
2026-05-06 03:57 13.08962 80.37705 3144 ft 218 kts 177°
2026-05-06 03:57 13.07489 80.37405 2998 ft 220 kts 208°
2026-05-06 03:57 13.06407 80.36338 2878 ft 221 kts 241°
2026-05-06 03:58 13.05777 80.34908 2897 ft 221 kts 244°
2026-05-06 03:58 13.05213 80.33437 2890 ft 222 kts 247°
2026-05-06 03:58 13.04661 80.31967 2734 ft 220 kts 247°
2026-05-06 03:58 13.04113 80.30501 2445 ft 219 kts 247°
2026-05-06 03:59 13.03569 80.29048 2179 ft 215 kts 246°
2026-05-06 03:59 13.03055 80.27670 1909 ft 198 kts 247°
2026-05-06 03:59 13.02577 80.26384 1662 ft 189 kts 246°
2026-05-06 03:59 13.02104 80.25153 1405 ft 181 kts 246°
2026-05-06 04:00 13.01662 80.23972 1179 ft 173 kts 246°
2026-05-06 04:00 13.01251 80.22867 981 ft 157 kts 246°
2026-05-06 04:00 13.00870 80.21852 791 ft 152 kts 246°
2026-05-06 04:00 13.00508 80.20882 601 ft 147 kts 247°
2026-05-06 04:01 13.00138 80.19888 401 ft 147 kts 248°
2026-05-06 04:01 12.99775 80.18915 223 ft 144 kts 247°
2026-05-06 04:01 12.99411 80.17962 58 ft 134 kts 248°
2026-05-06 04:01 12.99144 80.17234 53 ft 90 kts 249°
2026-05-06 04:02 12.98977 80.16792 56 ft 48 kts 249°
2026-05-06 04:02 12.98882 80.16542 55 ft 34 kts 248°
2026-05-06 04:02 12.98767 80.16369 57 ft 27 kts 215°
2026-05-06 04:02 12.98613 80.16255 52 ft 27 kts 217°
2026-05-06 04:03 12.98539 80.16156 54 ft 10 kts 249°
2026-05-06 04:03 12.98494 80.16135 52 ft 7 kts 170°
2026-05-06 04:03 12.98449 80.16150 53 ft 7 kts 158°
2026-05-06 04:03 12.98398 80.16173 52 ft 8 kts 144°
2026-05-06 04:04 12.98390 80.16215 54 ft 6 kts 71°
2026-05-06 04:04 12.98405 80.16256 54 ft 7 kts 70°
2026-05-06 04:04 12.98423 80.16307 56 ft 8 kts 70°
2026-05-06 04:04 12.98439 80.16354 58 ft 6 kts 70°
2026-05-06 04:05 12.98451 80.16388 53 ft 4 kts 70°
2026-05-06 04:05 12.98451 80.16415 56 ft 4 kts 114°
2026-05-06 04:05 12.98431 80.16431 55 ft 4 kts 154°
2026-05-06 04:05 12.98418 80.16436 54 ft 2 kts 162°
2026-05-06 04:06 12.98410 80.16438 53 ft 0 kts 160°